[[{"header":{"parameterUnit":"m.s-1","parameterCategory":1,"la1":30.2991,"la2":30.254,"lo1":-89.0895,"lo2":-89.0444,"dy":0.0017,"dx":0.0017,"nx":28,"ny":28,"refTime":"2023-04-20T21:00:00:Z","depth":0,"parameterNumber":2,"parameterNumberName":"U-component_of_WINDS"},"data":[0,0,0,0,0,0,0,0,0,0,0,0,0,0,0,0,0,0,0,0,0,0,0,0,0,0,0,0,0,0,0,0,0,0,0,0,0,0,0,0,0,0,0,0,0,0,0,0,0,0,0,0,0,0,0,0,0,0,-4.1243,-4.1243,0,-4.1261,-4.1261,-4.1261,-4.1217,-4.1216,-4.1214,-4.1213,-4.123,-4.1232,-4.1234,0,0,0,0,0,0,0,0,0,0,0,0,0,-4.1168,-4.117,-4.1243,-4.1243,-4.1243,-4.1261,-4.1261,-4.1261,-4.1217,-4.1216,-4.1214,-4.1212,-4.123,-4.1232,-4.1234,0,0,0,0,0,0,0,0,0,0,0,0,0,-4.1195,-4.117,-4.1242,-4.1223,-4.1222,-4.1261,-4.1261,-4.1261,-4.1218,-4.1216,-4.1214,-4.1212,-4.1229,-4.1231,-4.1234,-4.1292,0,0,-4.1242,-4.1243,0,0,0,0,0,0,0,0,-4.1194,-4.1198,-4.1226,-4.1225,-4.1223,-4.1235,-4.1241,-4.1272,-4.1218,-4.1219,-4.1213,-4.1211,-4.1233,-4.1235,-4.1243,-4.1293,-4.1294,-4.1242,-4.1244,-4.1245,-4.1246,0,0,0,0,0,0,0,-4.1192,-4.1197,-4.125,-4.1226,-4.1225,-4.1213,-4.1215,-4.1247,-4.1238,-4.1219,-4.1216,-4.1219,-4.1232,-4.1241,-4.1243,-4.1294,-4.1242,-4.1245,-4.1246,-4.1247,-4.1392,-4.1394,0,0,0,0,0,0,-4.1193,-4.1196,-4.1249,-4.125,-4.1203,-4.1216,-4.1218,-4.1233,-4.1237,-4.1236,-4.1221,-4.1217,-4.1237,-4.124,-4.1244,-4.1311,-4.1245,-4.1248,-4.1249,-4.1389,-4.1392,-4.1395,0,0,0,0,0,0,-4.1191,-4.1198,-4.1248,-4.1222,-4.1228,-4.122,-4.1237,-4.1234,-4.1243,-4.1238,-4.1236,-4.1231,-4.1236,-4.124,-4.128,-4.1311,-4.1249,-4.1251,-4.1387,-4.139,-4.1393,-4.1447,0,0,0,0,0,0,-4.1189,-4.1198,-4.122,-4.1223,-4.1229,-4.1285,-4.1239,-4.1236,-4.1248,-4.1243,-4.1248,-4.1247,-4.1235,-4.1277,-4.1283,-4.1314,-4.1253,-4.1384,-4.1388,-4.1392,-4.1442,-4.1452,-4.146,0,0,0,0,0,-4.1187,-4.1234,-4.1221,-4.1228,-4.1257,-4.1287,-4.129,-4.1276,-4.1251,-4.1273,-4.127,-4.1247,-4.1308,-4.1281,-4.1288,-4.132,-4.1382,-4.1387,-4.1392,-4.1438,-4.145,-4.146,0,0,0,0,0,0,-4.1233,-4.1234,-4.1219,-4.1269,-4.1278,-4.1279,-4.1306,-4.1289,-4.1305,-4.1299,-4.1281,-4.1282,-4.1326,-4.1327,-4.1298,-4.1376,-4.134,-4.1347,-4.1373,-4.1384,-4.1393,-4.139,-4.1255,0,0,0,0,0,-4.1249,-4.1274,-4.1273,-4.1317,-4.1323,-4.1314,-4.1327,-4.1315,-4.1324,-4.1327,-4.1327,-4.1336,-4.1357,-4.1371,-4.139,-4.1443,-4.1443,-4.1469,-4.1477,-4.1484,-4.149,-4.1517,-4.1528,-4.1411,-4.1411,-4.1411,0,0,-4.1282,-4.1286,-4.1303,-4.1326,-4.1332,-4.1358,-4.1317,-4.1346,-4.1365,-4.1331,-4.1369,-4.137,-4.1378,-4.1425,-4.1446,-4.1427,-4.1522,-4.1491,-4.1497,-4.1498,-4.1524,-4.1535,-4.1544,-4.1415,-4.1414,-4.1414,0,0,-4.1356,-4.1361,-4.1398,-4.1405,-4.1415,-4.1409,-4.1418,-4.1422,-4.1422,-4.146,-4.1435,-4.1457,-4.1494,-4.1501,-4.1509,-4.1587,-4.1566,-4.1594,-4.1638,-4.1666,-4.1675,-4.1683,-4.1709,-4.1719,-4.16,-4.16,-4.16,0,-4.1395,-4.1433,-4.1419,-4.145,-4.1461,-4.1433,-4.1469,-4.1477,-4.1492,-4.15,-4.148,-4.1526,-4.153,-4.1578,-4.1597,-4.1605,-4.1614,-4.1592,-4.1675,-4.1683,-4.169,-4.1715,-4.1725,-4.1603,-4.1603,-4.1602,-4.1602,0,-4.1481,-4.1508,-4.1536,-4.1552,-4.1567,-4.1601,-4.1591,-4.1608,-4.1596,-4.1592,-4.1631,-4.1635,-4.1654,-4.1665,-4.1654,-4.1712,-4.17,-4.1678,-4.1641,-4.1704,-4.1727,-4.1737,-4.1608,-4.1607,-4.1606,-4.1605,0,0,-4.1581,-4.1591,-4.1601,-4.1608,-4.1618,-4.1638,-4.1671,-4.169,-4.1704,-4.1716,-4.1742,-4.1775,-4.1755,-4.1765,-4.1754,-4.1778,-4.1838,-4.1752,-4.1752,-4.1766,-4.1901,-4.1916,-4.1927,-4.1825,-4.1827,-4.1828,-4.1899,0,-4.1652,-4.1708,-4.1697,-4.1752,-4.1776,-4.1751,-4.1779,-4.1788,-4.1786,-4.1806,-4.1804,-4.1827,-4.1799,-4.1805,-4.1828,-4.1825,-4.1864,-4.182,-4.1847,-4.1849,-4.1844,-4.1939,-4.1955,-4.2022,-4.1908,-4.191,-4.1911,0,-4.1742,-4.1758,-4.1816,-4.1821,-4.1831,-4.1857,-4.1874,-4.1894,-4.1904,-4.19,-4.1912,-4.1897,-4.1929,-4.1894,-4.1937,-4.1908,-4.1919,-4.1919,-4.1922,-4.1922,-4.1882,-4.194,-4.2043,-4.2052,-4.1925,-4.1924,-4.1923,0,-4.1808,-4.1844,-4.1883,-4.189,-4.1898,-4.1917,-4.1921,-4.1928,-4.1941,-4.1956,-4.1964,-4.1983,-4.1993,-4.2008,-4.1998,-4.1973,-4.2042,-4.2007,-4.204,-4.204,-4.2053,-4.2052,-4.2157,-4.2064,-4.2064,-4.2064,-4.2064,0,-4.1887,-4.1923,-4.1912,-4.1936,-4.1975,-4.1962,-4.2001,-4.2003,-4.201,-4.2033,-4.2013,-4.2035,-4.2022,-4.2043,-4.2035,-4.2072,-4.2077,-4.2074,-4.2071,-4.2075,-4.2075,-4.208,-4.2074,-4.2066,-4.2066,-4.2065,-4.2065,0,-4.1966,-4.1961,-4.2001,-4.2006,-4.2008,-4.2037,-4.2041,-4.2063,-4.206,-4.2089,-4.2096,-4.2091,-4.2115,-4.2107,-4.2133,-4.2128,-4.2173,-4.2166,-4.217,-4.2167,-4.22,-4.2196,-4.231,-4.2324,-4.2224,-4.2225,-4.2226,0,-4.2016,-4.2043,-4.2051,-4.2065,-4.2071,-4.2095,-4.2108,-4.2097,-4.2111,-4.2124,-4.2145,-4.2167,-4.2183,-4.2223,-4.2221,-4.2241,-4.2232,-4.2271,-4.2234,-4.2237,-4.223,-4.2228,-4.223,-4.2277,-4.2278,-4.2279,-4.228,0,-4.2104,-4.2101,-4.2121,-4.214,-4.2156,-4.2171,-4.2183,-4.2196,-4.2186,-4.2203,-4.2227,-4.2241,-4.2267,-4.2289,-4.2307,-4.231,-4.2293,-4.2292,-4.23,-4.2303,-4.2303,-4.2302,-4.2187,-4.2289,-4.2288,-4.2287,-4.2287,-4.2286,-4.2169,-4.2192,-4.2201,-4.2224,-4.2233,-4.2245,-4.2266,-4.2266,-4.2286,-4.2307,-4.23,-4.2327,-4.2336,-4.2358,-4.2365,-4.2386,-4.2371,-4.2384,-4.2386,-4.2389,-4.2392,-4.2302,-4.239,-4.2389,-4.2389,-4.2389,-4.2389,0,-4.2255,-4.2261,-4.2282,-4.23,-4.2318,-4.2302,-4.2316,-4.2331,-4.2356,-4.2367,-4.2384,-4.2412,-4.2433,-4.2434,-4.2454,-4.2471,-4.2463,-4.2476,-4.2474,-4.2475,-4.2406,-4.2395,-4.2482,-4.2482,-4.2482,-4.2482,-4.2482,-4.2482,-4.2302,-4.2339,-4.2337,-4.2378,-4.2383,-4.241,-4.2419,-4.243,-4.2438,-4.247,-4.2488,-4.2489,-4.2496,-4.2516,-4.2535,-4.2535,-4.2542,-4.2558,-4.2554,-4.2489,-4.248,-4.2471,-4.2461,-4.256,-4.256,-4.2621,-4.2622,-4.2622]},{"header":{"parameterUnit":"m.s-1","parameterCategory":1,"la1":30.2991,"la2":30.254,"lo1":-89.0895,"lo2":-89.0444,"dy":0.0017,"dx":0.0017,"nx":28,"ny":28,"refTime":"2023-04-20T21:00:00:Z","depth":0,"parameterNumber":3,"parameterNumberName":"V-component_of_WINDS"},"data":[0,0,0,0,0,0,0,0,0,0,0,0,0,0,0,0,0,0,0,0,0,0,0,0,0,0,0,0,0,0,0,0,0,0,0,0,0,0,0,0,0,0,0,0,0,0,0,0,0,0,0,0,0,0,0,0,0,0,4.2072,4.2073,0,4.2186,4.2188,4.2189,4.2201,4.22,4.2199,4.2198,4.231,4.2314,4.2318,0,0,0,0,0,0,0,0,0,0,0,0,0,4.1862,4.1866,4.2072,4.2073,4.2075,4.2186,4.2188,4.2189,4.2201,4.22,4.2199,4.2197,4.2308,4.2313,4.2318,0,0,0,0,0,0,0,0,0,0,0,0,0,4.1962,4.1867,4.2072,4.2095,4.2098,4.2186,4.2188,4.219,4.2202,4.22,4.2198,4.2197,4.2307,4.2313,4.2319,4.239,0,0,4.2337,4.234,0,0,0,0,0,0,0,0,4.1956,4.197,4.209,4.2093,4.2097,4.2178,4.2155,4.2257,4.2202,4.2162,4.2198,4.2196,4.2267,4.2276,4.2301,4.2396,4.24,4.2338,4.2341,4.2344,4.2346,0,0,0,0,0,0,0,4.195,4.1965,4.2117,4.2091,4.2096,4.2098,4.2111,4.2174,4.2222,4.2165,4.2167,4.218,4.2268,4.2295,4.2304,4.2402,4.2338,4.2343,4.2347,4.2349,4.2564,4.2566,0,0,0,0,0,0,4.1939,4.1959,4.2113,4.2121,4.2021,4.2103,4.2117,4.2153,4.2222,4.2231,4.2182,4.218,4.2286,4.2297,4.2308,4.2398,4.2344,4.235,4.2353,4.2562,4.2564,4.2566,0,0,0,0,0,0,4.1934,4.1953,4.2109,4.204,4.206,4.2109,4.215,4.2157,4.2184,4.2234,4.2242,4.22,4.2285,4.2299,4.2371,4.2402,4.2352,4.2358,4.2559,4.2562,4.2565,4.2578,0,0,0,0,0,0,4.1928,4.1951,4.1979,4.2041,4.2064,4.2171,4.2151,4.216,4.2195,4.2194,4.2254,4.2262,4.2285,4.2362,4.2377,4.241,4.2363,4.2557,4.2561,4.2564,4.2575,4.2581,4.2586,0,0,0,0,0,4.1921,4.1976,4.198,4.1999,4.2101,4.2172,4.2186,4.2212,4.2197,4.2226,4.2259,4.226,4.2396,4.2369,4.2386,4.2421,4.2555,4.256,4.2564,4.2572,4.258,4.2586,0,0,0,0,0,0,4.1914,4.1985,4.199,4.2068,4.2114,4.2174,4.2211,4.2219,4.2269,4.2266,4.2295,4.2308,4.2379,4.2407,4.2375,4.2495,4.2474,4.2482,4.2474,4.2482,4.2488,4.2479,4.2368,0,0,0,0,0,4.1922,4.1976,4.2034,4.2097,4.2121,4.2162,4.2194,4.2211,4.226,4.2279,4.2317,4.2363,4.2416,4.2451,4.2502,4.2579,4.2593,4.2612,4.2618,4.2622,4.2629,4.2673,4.2683,4.2582,4.2582,4.2582,0,0,4.1939,4.1984,4.2015,4.2097,4.2135,4.219,4.2178,4.2236,4.2276,4.2287,4.2358,4.2387,4.2441,4.2516,4.2551,4.2541,4.266,4.2628,4.2631,4.2636,4.2679,4.2689,4.2697,4.2585,4.2584,4.2584,0,0,4.1997,4.2036,4.2094,4.2133,4.2192,4.222,4.2234,4.2294,4.2315,4.2387,4.2397,4.2445,4.2535,4.2574,4.2605,4.2681,4.2685,4.2697,4.2727,4.277,4.2778,4.2785,4.2813,4.2823,4.2704,4.2704,4.2704,0,4.2009,4.2093,4.2122,4.2181,4.2217,4.2231,4.229,4.2326,4.2398,4.2422,4.2411,4.2528,4.2565,4.265,4.2669,4.2693,4.271,4.269,4.2774,4.2782,4.2789,4.2816,4.2827,4.2705,4.2705,4.2705,4.2704,0,4.2106,4.2164,4.2204,4.2276,4.2316,4.2374,4.2412,4.2449,4.2463,4.2492,4.2565,4.2611,4.2673,4.2694,4.2707,4.2782,4.2775,4.2769,4.2748,4.28,4.2826,4.2836,4.2706,4.2706,4.2706,4.2705,0,0,4.2161,4.2252,4.2265,4.23,4.2367,4.2412,4.2471,4.2534,4.2566,4.2616,4.2666,4.2745,4.2741,4.2776,4.2793,4.2831,4.289,4.2821,4.2823,4.2833,4.2977,4.2982,4.2993,4.2894,4.2896,4.2897,4.2973,0,4.2228,4.2336,4.2365,4.2456,4.2511,4.2527,4.2579,4.2625,4.2654,4.2704,4.2735,4.2791,4.2781,4.2803,4.2841,4.2875,4.292,4.287,4.294,4.2943,4.2927,4.3007,4.3011,4.3081,4.2983,4.2985,4.2986,0,4.2319,4.2374,4.2471,4.2534,4.2558,4.2604,4.2666,4.2714,4.2767,4.2786,4.2827,4.2842,4.2904,4.288,4.2967,4.2932,4.2963,4.2984,4.2987,4.2995,4.2968,4.3017,4.3103,4.3114,4.3002,4.3001,4.3,0,4.2352,4.2449,4.2521,4.2549,4.2624,4.2656,4.2688,4.2741,4.2778,4.2831,4.2855,4.2914,4.2946,4.2991,4.3021,4.3001,4.3106,4.3084,4.3122,4.3122,4.3143,4.3142,4.3236,4.3162,4.3162,4.3162,4.3162,0,4.2423,4.2482,4.2537,4.2581,4.2648,4.2681,4.2746,4.2778,4.2825,4.2876,4.2892,4.2938,4.2975,4.3027,4.305,4.3119,4.3133,4.315,4.3155,4.3149,4.3147,4.3169,4.3165,4.3165,4.3164,4.3164,4.3163,0,4.247,4.2509,4.2588,4.2654,4.2672,4.2718,4.2774,4.2817,4.2847,4.2911,4.2928,4.2975,4.3037,4.3072,4.3148,4.3164,4.3241,4.3244,4.3224,4.3226,4.3263,4.3259,4.3376,4.3393,4.3307,4.3308,4.3308,0,4.2513,4.256,4.2631,4.2667,4.2701,4.2758,4.2797,4.2832,4.2871,4.2937,4.2972,4.3036,4.3088,4.3186,4.3226,4.3286,4.329,4.3327,4.3299,4.3292,4.3292,4.3289,4.3295,4.3332,4.3332,4.3333,4.3334,0,4.2586,4.2604,4.266,4.2724,4.277,4.2821,4.2872,4.29,4.2943,4.2987,4.3052,4.3092,4.3173,4.3235,4.3299,4.3331,4.334,4.3342,4.3355,4.3348,4.3335,4.3344,4.3237,4.3339,4.3339,4.3338,4.3338,4.3338,4.2634,4.2677,4.2735,4.2797,4.2839,4.2887,4.2932,4.2969,4.3024,4.3094,4.3111,4.3179,4.3233,4.3319,4.3353,4.3406,4.34,4.3417,4.3421,4.3425,4.3427,4.3327,4.3418,4.3418,4.3418,4.3417,4.3417,0,4.2709,4.2748,4.2805,4.2877,4.2926,4.2933,4.299,4.303,4.3091,4.3141,4.3194,4.3269,4.333,4.3377,4.344,4.3473,4.3479,4.3489,4.3487,4.3494,4.3429,4.3413,4.3483,4.3483,4.3483,4.3483,4.3483,4.3483,4.2754,4.2827,4.2852,4.2947,4.2985,4.3054,4.3087,4.3131,4.3171,4.3255,4.3308,4.3338,4.3387,4.3454,4.3511,4.3523,4.3546,4.3555,4.3567,4.3506,4.3499,4.3492,4.3477,4.3559,4.356,4.3628,4.3629,4.3629]}]]